Location: Ammerl�gen
(47.2167°N, 9.6000°E)
Time: 03:40:48
(UTC+00:00)

Cosmos 1386 Rocket - Pass Details

Date: 21 April 2021
Orbit: 928 x 1007 km, 83.0° (Epoch: 16 May)

Event Time Altitude Azimuth Distance (km) Brightness Sun altitude
Rises 21:50:21 0° 350° (N) 3,613 8.7 -27.3°
Reaches altitude 10° 21:52:51 10° 350° (N) 2,657 7.7 -27.5°
Maximum altitude 21:58:55 85° 263° (W) 940 4.3 -27.9°
Enters shadow 21:59:18 79° 199° (SSW) 952 4.2 -27.9°
